This is the latest recevied weather packets stored in our database for station/object CE3MXM-12. If no packets are shown the sender has not sent any weather packets the latest 1 day(s).
| Time | Temp. | Humidity | Pressure | Rain* | Wind** | Luminosity | Snow |
|---|---|---|---|---|---|---|---|
| 1778008809 | 16.11° C | 66% | 1012.8 hPa | - | 7.6 m/s, 331° | - | - |
| 1778008509 | 16.67° C | 64% | 1012.8 hPa | - | 4.02 m/s, 185° | - | - |
| 1778008209 | 17.22° C | 62% | 1012.7 hPa | - | 3.58 m/s, 221° | - | - |
| 1778007909 | 17.22° C | 62% | 1012.5 hPa | - | 2.68 m/s, 328° | - | - |
| 1778007609 | 17.22° C | 61% | 1012.2 hPa | - | 0.89 m/s, 150° | - | - |
| 1778007309 | 17.78° C | 60% | 1012.4 hPa | - | 4.47 m/s, 278° | - | - |
| 1778007011 | 17.78° C | 61% | 1012.2 hPa | - | 5.36 m/s, 282° | - | - |
| 1778006708 | 17.78° C | 60% | 1012.3 hPa | - | 3.13 m/s, 327° | - | - |
| 1778006408 | 18.33° C | 61% | 1012.1 hPa | - | 4.92 m/s, 0° | - | - |
| 1778006108 | 17.78° C | 61% | 1012.1 hPa | - | 2.68 m/s, 142° | - | - |
| 1778005808 | 17.78° C | 61% | 1012.1 hPa | - | 1.79 m/s, 268° | - | - |
| 1778005508 | 17.78° C | 60% | 1011.9 hPa | - | 4.02 m/s, 242° | - | - |
| 1778005208 | 17.78° C | 61% | 1011.9 hPa | - | 2.24 m/s, 113° | - | - |
| 1778004908 | 17.78° C | 61% | 1011.9 hPa | - | 1.34 m/s, 320° | - | - |
| 1778004608 | 17.78° C | 61% | 1012.1 hPa | - | 4.02 m/s, 255° | - | - |
| 1778004308 | 17.78° C | 62% | 1011.9 hPa | - | 4.02 m/s, 333° | - | - |
| 1778004008 | 17.22° C | 63% | 1011.9 hPa | - | 0.89 m/s, 320° | - | - |
| 1778003708 | 17.22° C | 62% | 1011.8 hPa | - | 3.13 m/s, 229° | - | - |
| 1778003407 | 17.78° C | 63% | 1012 hPa | - | 1.79 m/s, 315° | - | - |
| 1778003107 | 17.78° C | 63% | 1011.9 hPa | - | 1.79 m/s, 316° | - | - |
| 1778002807 | 18.33° C | 62% | 1012 hPa | - | 1.34 m/s, 300° | - | - |
| 1778002507 | 18.33° C | 62% | 1012 hPa | - | 1.79 m/s, 322° | - | - |
| 1778002207 | 18.33° C | 61% | 1012.1 hPa | - | 4.92 m/s, 125° | - | - |
| 1778001907 | 18.89° C | 60% | 1012.2 hPa | - | 3.58 m/s, 276° | - | - |
| 1778001607 | 19.44° C | 60% | 1012.1 hPa | - | 1.79 m/s, 322° | - | - |
* Rain since midnight (hover to see other rain measurements)
** Current wind speed in m/s (hover to see current wind gust speed)